Location: Plymouth
(43.7490°N, 87.9770°W)
Time: 08:06:32
(UTC-05:00)

Daily predictions for brighter satellites

Satellite Brightness Start Highest point End
(mag) Time Altitude Azimuth Time Altitude Azimuth Time Altitude Azimuth
CZ-2D R/B 4.3 20:42:49 10° S 20:46:30 47° W 20:50:13 10° NNW
Cosmos 2074 Rocket 4.5 20:46:46 10° SSW 20:53:01 68° W 20:59:16 10° N
Cosmos 1606 2.7 20:49:32 10° N 20:53:29 76° E 20:57:23 10° SSE
Okean 2 Rocket 3.9 20:49:48 10° SSE 20:53:41 31° E 20:57:34 10° NNE
BREEZE-M DEB (TANK) 2.5 20:52:40 10° W 20:54:47 38° NNW 20:56:53 10° NE
Cosmos 2084 3.3 20:52:15 10° SW 20:56:06 81° NW 20:59:57 10° NE
EO 1 Delta rocket 4.5 20:52:17 10° NNE 20:57:57 46° E 21:02:39 10° SSE
Cosmos 1782 Rocket 4.0 20:54:15 10° SSE 20:58:28 43° E 21:02:43 10° NNE
USA 229 DEB 4.3 20:53:13 10° NNW 21:00:05 49° NE 21:07:00 10° ESE
USA 229 4.3 20:53:19 10° NNW 21:00:11 48° NE 21:07:05 10° ESE
CZ-4 DEB 3.2 20:57:42 10° S 21:00:50 63° W 21:03:59 10° NNW
Cosmos 1242 Rocket 3.3 20:57:51 10° N 21:01:17 35° ENE 21:04:42 10° SE
Cosmos 1850 Rocket 4.4 20:59:01 10° NNW 21:04:14 52° ENE 21:09:25 10° SE
USA 186 3.8 21:02:45 10° SSW 21:05:37 29° W 21:08:36 10° NNW
Cosmos 676 Rocket 4.5 21:00:38 10° NNW 21:05:47 62° WSW 21:10:57 10° S
COS B Rocket 3.2 21:02:32 10° N 21:06:25 58° E 21:09:51 10° SSE
ALOS 3.9 21:02:29 10° SSW 21:06:44 34° W 21:11:00 10° NNW
Elektron 3 4.0 21:04:57 10° NW 21:07:48 65° NE 21:11:16 12° SE
Cosmos 1862 3.3 21:04:09 10° S 21:08:13 80° E 21:12:19 10° N
Cosmos 1954 Rocket 4.2 21:03:03 10° NNW 21:08:16 77° WSW 21:13:30 10° SSE
Sich 1 Rocket 4.0 21:04:06 10° SSW 21:08:40 70° W 21:13:15 10° N
Nadezhda 3 Rocket 4.1 21:03:15 10° N 21:09:40 86° E 21:16:03 10° S
GPS 2-05 Rocket1 4.4 21:08:32 10° WSW 21:11:31 23° S 21:13:49 13° SE
Cosmos 1975 Rocket 3.1 21:07:15 10° N 21:11:33 60° E 21:15:51 10° SSE
DNEPR-1 R/B 3.9 21:06:33 10° NW 21:12:03 88° ENE 21:16:17 12° SE
OAO 3 Rocket 4.4 21:08:10 10° SW 21:12:08 24° SSE 21:15:30 13° ESE
Lacrosse 5 rocket 2.9 21:11:16 10° SSE 21:13:18 14° ESE 21:15:18 10° E
YAOGAN 6 3.7 21:10:46 13° SE 21:13:20 28° ENE 21:16:24 10° N
ARGOS 4.2 21:09:06 11° ESE 21:13:24 29° ENE 21:17:57 10° N
BREEZE-M DEB (TANK) 3.5 21:11:45 10° W 21:14:17 54° NNW 21:20:17 10° ENE
Cosmos 1408 2.5 21:12:10 10° S 21:15:48 86° ESE 21:19:28 10° N
PSLV R/B 4.0 21:16:18 16° SE 21:18:13 32° ENE 21:20:55 10° N
Meteor 1-27 Rocket 4.1 21:13:19 10° NNW 21:18:50 66° W 21:24:16 10° S
Cosmos 1378 Rocket 3.8 21:15:13 10° NNW 21:19:32 71° W 21:23:50 10° S
Cosmos 1023 Rocket 4.5 21:15:17 10° NNW 21:20:26 88° WSW 21:25:35 10° SSE
Cosmos 1908 Rocket 4.1 21:18:28 10° SSW 21:22:50 61° W 21:27:17 10° N
Gbstr 26 Del rocket 4.2 21:17:46 10° NW 21:23:07 45° NNE 21:27:28 10° E
CZ-4 SHROUD 3.8 21:23:32 18° SE 21:25:28 39° ENE 21:28:23 10° N
Cosmos 1741 Rocket 4.0 21:21:16 10° NNW 21:26:31 77° ENE 21:31:03 14° SSE
Nimbus 7 Rocket 4.4 21:22:53 10° NNE 21:28:51 70° ESE 21:34:50 10° S
MetOp-A 4.1 21:31:18 13° SSE 21:36:03 73° ENE 21:41:25 10° N
Cosmos 614 Rocket 3.9 21:34:00 10° NNW 21:39:07 90° E 21:43:08 16° SSE
Cosmos 1825 3.2 21:35:50 10° SSW 21:39:31 47° WNW 21:43:14 10° N
Envisat 3.4 21:35:47 10° S 21:40:48 63° WSW 21:45:52 10° NNW
deb Chang Zheng 4 3.8 21:36:23 10° N 21:40:49 74° WNW 21:45:14 10° SSW
Cosmos 1833 Rocket 2.8 21:35:38 10° NNW 21:41:13 62° ENE 21:45:05 20° SE
Cosmos 2341 Rocket 4.3 21:36:40 10° SSW 21:42:56 72° W 21:49:12 10° N
SL-8 Rocket 4.0 21:39:40 10° S 21:45:55 74° E 21:52:08 10° NNE
Terra 3.3 21:44:32 16° ESE 21:46:48 23° ENE 21:50:30 10° NNE
USA 245 3.5 21:46:35 25° SE 21:48:35 60° ENE 21:53:02 10° N
ISS -1.5 21:46:16 10° W 21:49:17 33° NNW 21:52:18 10° NE
ERS-1 Rocket 4.4 21:45:14 10° SSW 21:49:49 35° W 21:54:27 10° NNW
Cosmos 2278 Rocket 3.2 21:45:01 10° SW 21:50:31 50° WNW 21:56:03 10° NNE
H-2A R/B 2.9 21:47:01 10° S 21:51:08 45° W 21:55:11 10° NNW
Cosmos 1939 Rocket 4.5 21:51:51 10° SSW 21:55:19 30° W 21:58:51 10° NNW
Cosmos 1140 Rocket 4.5 21:51:10 10° NNW 21:55:59 42° WSW 22:00:43 11° S
Abrixas 2.4 21:54:14 10° SW 21:57:13 57° SSE 21:58:22 32° E
Timation 1 Rocket 4.5 21:51:47 10° S 21:57:34 52° ESE 22:03:22 10° NE
APEX 4.4 21:56:05 10° SW 22:00:10 57° WNW 22:05:34 10° NNE
Cosmos 2151 Rocket 3.6 21:56:56 17° S 22:00:20 72° E 22:04:52 10° NNE
Meteor 1-25 Rocket 4.4 21:58:34 18° SSE 22:02:52 58° E 22:08:33 10° NNE
CZ-4B R/B 3.3 22:00:03 10° NNE 22:04:57 66° ESE 22:08:19 19° S
Cosmos 1300 Rocket 4.3 22:04:47 30° ESE 22:05:52 34° E 22:09:54 10° NNE
SPOT 5 3.8 22:02:46 12° S 22:07:32 52° W 22:12:47 10° NNW
Cosmos 2082 Rocket 2.5 22:03:34 10° NNW 22:09:13 65° WSW 22:12:49 23° S
Okean 1 3.8 22:05:39 10° N 22:09:34 43° ENE 22:10:39 35° ESE
NOSS 8 (F) 4.5 22:10:33 10° SW 22:14:02 83° NW 22:17:48 10° NE
Cosmos 1812 2.8 22:10:22 10° N 22:14:12 58° E 22:15:11 43° SE
Okean 1 Rocket 3.7 22:13:53 33° ESE 22:14:45 36° E 22:18:51 10° NNE
Cosmos 864 Rocket 4.4 22:09:39 14° S 22:14:57 84° E 22:21:10 10° N
Lacrosse 5 2.1 22:14:29 10° SSW 22:19:18 44° SE 22:24:08 10° ENE
Genesis I 4.0 22:21:07 34° E 22:21:07 34° E 22:24:09 10° NE
H-2A R/B 2.3 22:20:50 33° SE 22:23:08 60° ENE 22:28:19 10° N
Meteor 1-18 Rocket 4.4 22:19:08 10° NNW 22:25:03 78° W 22:28:36 26° S
Cosmos 2366 rocket 4.2 22:22:11 11° SSW 22:28:10 74° W 22:34:33 10° N
NOAA 11 4.5 22:28:28 25° S 22:31:38 65° WSW 22:37:08 10° NNW
Cosmos 1302 Rocket 4.2 22:32:20 39° SSE 22:33:43 50° ESE 22:38:50 10° NNE
Okean 1-7 Rocket 3.7 22:29:34 10° N 22:34:01 59° E 22:34:56 48° SE
SL-8 R/B 4.3 22:31:53 10° WNW 22:36:37 53° N 22:39:34 22° E
SPOT 1/Viking Rocket 4.3 22:35:56 22° SSW 22:38:59 46° W 22:44:02 10° NNW
Meteor 1-13 Rocket 4.4 22:35:46 10° N 22:41:42 67° ENE 22:43:51 40° SSE
ASTEX 1 3.6 22:38:37 10° NNE 22:43:30 54° E 22:44:25 47° SE
Cosmos 1633 4.3 22:44:51 22° ENE 22:44:51 22° ENE 22:46:53 10° NNE
Iridium 4 Rocket 4.3 22:42:20 10° N 22:47:59 44° E 22:49:23 38° ESE
Cosmos 1315 Rocket 4.5 22:51:14 21° ENE 22:51:14 21° ENE 22:53:18 10° NE
CARTOSAT-1 3.5 22:49:49 60° S 22:50:35 86° WSW 22:54:55 10° NNW
Lacrosse 5 rocket 1.2 22:48:12 10° SW 22:52:06 75° NW 22:55:51 10° NE
ARGOS 4.1 22:50:37 23° SSW 22:53:28 40° W 22:58:31 10° NNW
Cosmos 2369 Rocket 2.5 22:55:52 42° ESE 22:56:07 43° ESE 23:01:24 10° NE
CZ-4 R/B 4.5 22:52:00 10° N 22:56:32 51° WNW 22:59:17 22° SW
Meteor 1-11 Rocket 3.8 22:56:17 46° SSE 22:57:56 67° E 23:03:39 10° NNE
Cosmos 2084 Rocket 3.9 22:55:56 10° NNW 22:59:40 43° NE 22:59:57 42° ENE
Cosmos 1000 Rocket 4.4 22:53:53 10° N 23:00:10 83° E 23:02:21 44° SSE
Cosmos 2239 Rocket 4.4 23:05:01 45° SSE 23:07:04 75° E 23:13:22 10° NNE
IGS 5A 3.6 23:09:05 58° SW 23:09:23 60° W 23:13:32 10° NNW
NOSS 3-1 (A) 4.0 23:02:01 10° NW 23:09:36 87° NE 23:12:56 41° SE
Gbstr 26 Del rocket 3.4 23:05:27 10° WNW 23:10:03 52° SW 23:10:03 52° SW
Okean 2 4.4 23:06:31 10° N 23:10:02 36° ENE 23:10:02 36° ENE
SAR-Lupe-2 3.9 23:11:54 62° NNW 23:11:54 62° NNW 23:14:57 10° NNW
CZ-4C R/B 4.5 23:11:59 33° WSW 23:12:33 35° W 23:16:25 10° NNW
Cosmos 1503 Rocket 3.9 23:10:19 10° NNW 23:15:35 82° ENE 23:16:23 65° SE
Cosmos 1892 Rocket 3.9 23:12:41 10° N 23:16:48 54° ENE 23:16:48 54° ENE
Meteor 1-23 Rocket 4.2 23:12:29 10° N 23:18:02 67° ENE 23:18:55 58° SE
Cosmos 1400 Rocket 2.9 23:19:55 78° NNW 23:19:55 78° NNW 23:23:51 10° N
Cosmos 1943 Rocket 3.4 23:21:41 26° E 23:21:41 26° E 23:25:19 10° NE
Meteor 1-19 Rocket 4.3 23:17:57 10° NNW 23:23:48 76° W 23:25:07 54° SSW
Terra 2.6 23:23:26 38° SW 23:24:17 42° W 23:28:49 10° NNW
Cosmos 1536 3.1 23:25:09 64° N 23:25:09 64° N 23:28:34 10° N
ISS -0.6 23:23:53 10° NW 23:26:23 20° N 23:27:59 14° NE
Spot 2 4.0 23:23:33 10° N 23:27:44 74° WNW 23:27:44 74° WNW
Cosmos 1025 Rocket 3.1 23:24:33 10° NNW 23:28:53 70° W 23:28:53 70° W
ATLAS 2AS CENTAUR R/B 3.5 23:22:37 10° NNW 23:30:38 55° NE 23:34:23 31° ESE
Meteor 2-16 Rocket 4.3 23:32:57 59° S 23:34:12 84° E 23:40:20 10° N
Meteor 2-21 Rocket 4.4 23:33:03 50° SSW 23:34:47 81° W 23:41:03 10° N
Meteor 1-5 Rocket 4.1 23:37:52 61° E 23:37:53 61° E 23:43:07 10° NNE
NOSS 3-1 (C) 4.3 23:30:35 10° NW 23:37:59 57° WSW 23:40:24 43° S
USA 234 3.1 23:36:31 10° NE 23:43:04 72° SE 23:45:22 43° SSW
Cosmos 1455 Rocket 3.6 23:44:16 51° NE 23:44:16 51° NE 23:47:43 10° NNE
Cosmos 1821 Rocket 4.3 23:42:00 41° SW 23:44:05 63° W 23:50:16 10° N
Cosmos 1605 Rocket 3.9 23:43:43 61° SSE 23:44:55 80° E 23:51:22 10° N
Cosmos 1934 Rocket 4.1 23:49:38 49° SW 23:51:11 66° W 23:57:14 10° N
Cosmos 44 Rocket 4.0 23:47:52 10° NNW 23:52:51 47° NE 23:53:22 45° ENE
